SCP
-0 -0 -0 -0 -0 -0 -0 -0 -0 -0 -0 -0 -0 -0 -0 -0 0 0 0 0 0 -0 0 0 0 0 0 0 0 0 0 0 0 0 0 0 0 0 0 0 0 0 0 0 0
-0 0 -0 -0 -0 -0 -0 -0 -0 -0 -0 0 0 -0 -0 -0 0 0 0 -0 -0 -0 0 0 0 0 0 0 0 0 0 0 0 0 0 0 0 0 0 0 0 0 0 0 0
-0 -0 -0 -0 -0 -0 -0 0 0 0 0 -0 -0 0 -0 0 0 0 -0 -0 -0 -0 -0 0 0 0 0 0 0 0 0 0 0 0 0 0 0 0 0 0 0 0 0 0 0
-0 -0 -0 -0 -0 -0 -0 -0 -0 -0 0 -0 -0 0 0 -0 0 0 -0 -0 -0 -0 0 0 0 0 0 0 0 0 0 0 0 0 0 0 0 0 0 0 0 0 0 0 0
-0 -0 -0 -0 -0 -0 -0 -0 -0 -0 -0 0 0 0 0 -0 0 0 -0 -0 -0 0 0 0 0 0 0 0 0 0 0 0 0 0 0 0 0 0 0 0 0 0 0 0 0
-0 -0 0 -0 -0 -0 -0 -0 0 -0 0 -0 -0 0 0 0 0 0 0 -0 0 0 0 0 0 -0 0 0 0 0 0 0 -0 -0 0 0 0 0 0 0 0 0 0 0 0
-0 -0 -0 -0 -0 -0 -0 0 0 -0 0 -0 0 0 0 0 0 0 0 -0 -0 0 0 0 -0 0 -0 0 -0 0 0 0 0 0 0 0 0 0 0 0 0 0 0 0 0
-0 -0 0 -0 -0 -0 -0 -0 -0 0 0 0 -0 0 -0 0 0 0 0 0 -0 0 0 0 0 0 0 -0 0 0 0 0 0 0 0 0 0 0 0 0 0 0 0 0 0
-0 -0 -0 -0 -0 -0 -0 0 -0 0 -0 0 0 0 -0 0 0 0 0 0 0 -0 -0 0 -0 0 0 0 0 -0 0 0 0 0 0 0 0 0 0 0 0 0 0 0 0
0 -0 -0 -0 -0 -0 -0 0 0 0 -0 0 0 0 0 0 0 0 0 0 -0 -0 -0 -0 -0 -0 -0 -0 -0 -0 -0 0 0 0 0 0 0 0 0 0 0 0 0 0 0
-0 -0 -0 -0 -0 -0 -0 -0 -0 0 0 0 0 0 0 0 0 0 0 0 0 -0 -0 -0 -0 -0 -0 -0 -0 -0 -0 -0 0 0 -0 0 0 0 0 0 0 0 0 0 0
0 0 -0 -0 -0 -0 0 0 -0 -0 0 0 0 0 0 0 0 -0 0 0 0 0 -0 -0 -0 -0 -0 -0 -0 -0 -0 -0 -0 -0 -0 -0 0 0 0 0 0 0 0 0 0
0 0 -0 -0 -0 -0 0 0 -0 -0 0 0 0 0 0 0 0 0 0 -0 0 -0 -0 -0 -0 0 -0 -0 -0 -0 -0 0 -0 -0 -0 0 0 -0 0 0 0 0 0 0 -0
0 0 0 0 0 0 0 0 0 0 0 0 0 0 0 0 0 0 0 0 -0 0 0 -0 -0 0 -0 -0 0 -0 -0 -0 -0 0 -0 -0 -0 -0 -0 0 0 0 0 0 -0
0 0 -0 0 0 0 0 0 0 0 0 0 0 0 0 0 0 0 0 0 -0 -0 -0 -0 0 -0 -0 0 0 -0 -0 -0 0 0 0 0 0 -0 0 -0 0 0 0 0 -0
0 0 0 0 0 0 0 0 0 0 0 0 0 0 0 0 0 0 0 0 0 0 0 0 -0 0 -0 -0 -0 -0 -0 0 0 0 0 0 0 0 0 0 0 0 0 0 -0
0 0 0 0 0 -0 0 0 0 0 0 0 0 0 0 0 0 0 0 0 0 0 0 0 0 -0 0 -0 -0 0 0 0 0 0 0 0 0 -0 0 0 0 0 0 0 -0
0 0 0 0 0 0 0 0 0 0 0 0 0 0 0 0 0 0 0 0 0 0 0 0 0 0 0 0 0 0 0 0 0 0 0 0 0 0 0 0 0 0 0 0 0
0 0 0 0 0 0 0 0 0 0 0 0 0 0 0 0 0 0 0 0 0 0 0 0 0 0 0 0 0 0 0 0 0 0 0 0 0 0 0 0 0 0 0 0 0
0 0 0 0 0 0 0 0 0 0 0 0 0 0 0 0 0 0 0 0 0 0 0 0 0 0 0 0 0 0 0 0 0 0 0 0 0 0 0 0 0 0 0 0 0
0 0 0 0 0 0 0 0 0 0 0 0 0 0 0 0 0 0 0 0 0 0 0 0 0 0 0 0 0 0 0 0 0 0 0 0 0 0 0 0 0 0 0 0 0
0 0 0 0 0 0 0 0 0 0 0 0 0 0 0 0 0 0 0 0 0 0 0 0 0 0 0 0 0 0 0 0 0 0 0 0 0 0 0 0 0 0 0 0 0
0 0 0 0 0 0 0 0 0 0 0 0 0 0 0 0 0 0 0 0 0 0 0 0 0 0 0 0 0 0 0 0 0 0 0 0 0 0 0 0 0 0 0 0 0
0 0 0 0 0 0 0 0 0 0 0 0 0 0 0 0 0 0 0 0 0 0 0 0 0 0 0 0 0 0 0 0 0 0 0 0 0 0 0 0 0 0 0 0 0
0 0 0 0 0 0 0 0 0 0 0 0 0 0 0 0 0 0 0 0 0 0 0 0 0 0 0 0 0 0 0 0 0 0 0 0 0 0 0 0 0 0 0 0 0
0 0 0 0 0 0 0 0 0 0 0 0 0 0 0 0 0 0 0 0 0 0 0 0 0 0 0 0 0 0 0 0 0 0 0 0 0 0 0 0 0 0 0 0 0
0 0 0 0 0 0 0 0 0 0 0 0 0 0 0 0 0 0 0 0 0 0 0 0 0 0 0 0 0 0 0 0 0 0 0 0 0 0 0 0 0 0 0 0 0
Wind_Speed_500mb
31 34 35 37 40 38 37 33 28 23 18 12 20 24 15 20 43 43 51 46 40 33 23 22 25 15 14 12 15 13 8 17 9 9 9 30 16 48 44 68 86 47 47 32 48
26 29 33 34 36 36 34 32 31 25 18 16 24 37 9 3 30 56 40 28 29 23 22 23 35 28 17 14 13 14 6 15 15 29 32 57 45 26 31 60 53 64 62 65 70
22 23 26 28 30 32 41 40 31 27 18 15 22 42 11 4 16 54 45 39 37 23 23 20 14 23 28 24 15 10 7 34 38 44 30 45 78 39 17 31 47 47 52 73 83
17 15 18 23 25 26 26 37 38 42 39 22 5 27 32 6 11 44 45 39 38 25 22 31 47 36 14 21 26 30 42 31 26 37 22 42 38 66 61 27 33 37 46 69 85
14 11 10 15 19 20 24 25 38 41 48 46 22 5 27 56 35 35 39 35 31 30 21 24 35 32 16 28 62 38 34 57 65 80 70 70 68 40 53 37 37 44 53 63 66
13 9 11 11 11 17 21 19 16 20 42 41 54 24 16 44 35 31 32 35 37 33 33 39 41 38 29 18 26 24 55 52 66 65 54 61 35 15 37 32 41 52 66 70 71
11 9 10 9 10 15 19 28 25 24 19 20 40 39 81 41 29 25 25 33 45 31 33 25 13 18 43 43 57 55 39 34 41 6 7 7 40 25 22 32 46 56 62 70 68
9 8 13 20 14 17 17 22 33 41 22 35 5 41 32 42 28 14 22 13 26 30 31 27 38 50 24 30 12 11 11 8 27 24 24 17 11 21 18 31 42 46 54 64 68
9 8 13 29 32 19 12 10 8 5 17 46 24 10 16 39 52 46 34 30 15 30 37 26 37 29 21 8 9 19 7 12 9 53 8 16 17 15 21 29 34 38 44 49 60
7 5 10 21 30 34 29 30 61 9 4 13 43 13 36 45 56 47 33 30 22 11 25 42 31 15 15 17 3 4 11 13 11 17 41 36 24 17 23 33 33 36 44 52 55
5 4 6 18 18 10 9 9 12 33 76 40 28 23 43 23 48 58 39 43 44 47 15 41 29 14 13 12 7 11 16 16 6 4 16 16 17 11 21 28 29 34 40 44 46
5 5 5 6 14 13 4 7 21 24 40 37 43 30 34 38 29 51 47 34 46 16 9 16 21 13 8 9 16 14 14 9 6 10 12 16 11 7 12 16 24 26 30 35 41
8 7 11 10 8 14 16 34 24 16 17 20 32 35 34 26 31 56 38 14 20 30 32 20 6 17 7 17 11 11 9 3 6 7 12 11 2 5 5 13 16 22 25 30 38
9 6 9 13 12 22 29 17 8 8 10 25 27 24 39 9 16 38 41 14 18 7 8 18 18 9 12 14 9 6 4 3 9 6 8 5 6 8 8 6 6 10 18 24 30
6 10 8 3 15 20 18 12 6 5 9 13 13 15 26 22 9 38 27 51 12 10 7 1 12 14 14 7 8 4 2 6 4 7 7 9 6 6 9 9 8 2 10 21 30
5 4 8 10 8 13 19 11 6 13 6 6 11 20 8 26 15 19 17 20 11 12 24 7 5 8 5 6 6 5 5 9 7 5 7 8 7 6 9 10 8 8 2 11 21
2 4 4 6 8 15 15 9 11 12 7 7 6 9 6 13 14 23 11 17 10 9 12 7 8 9 13 7 8 14 9 5 9 8 7 7 6 13 6 7 17 18 7 3 18
9 2 3 6 10 13 12 9 13 6 10 2 2 3 8 11 9 13 6 9 12 9 8 7 9 13 24 6 2 8 8 8 7 2 8 10 8 7 6 14 16 11 9 8 17
15 10 6 3 8 10 5 10 16 14 11 15 5 6 6 3 6 8 10 3 3 7 10 8 2 7 7 9 3 7 10 6 14 2 7 5 12 5 3 9 15 17 13 17 31
17 14 13 7 6 9 8 8 6 6 13 5 8 4 7 5 3 9 0 4 3 8 1 6 6 3 8 3 20 12 10 6 8 5 8 9 10 9 11 15 20 21 22 17 48
16 11 13 13 10 6 8 11 7 10 8 6 8 8 4 7 5 4 7 2 4 4 8 5 6 6 4 9 1 7 4 12 9 6 8 2 12 12 12 11 17 30 21 33 46
14 5 13 19 6 9 7 13 12 11 7 7 9 6 9 7 5 5 5 6 10 8 6 3 8 4 1 5 5 3 6 7 8 8 1 5 14 3 13 17 13 15 23 55 42
11 13 16 25 7 1 1 5 6 12 11 9 7 5 4 10 6 3 5 2 12 7 9 9 3 6 14 8 6 4 7 9 9 6 11 10 11 3 12 11 16 26 51 50 41
12 1 11 19 12 20 13 6 7 8 10 9 11 11 9 6 8 10 5 7 9 6 13 8 6 10 12 10 7 3 5 7 11 7 8 16 15 19 17 14 40 51 52 50 44
19 11 13 5 6 15 13 12 13 12 7 16 3 9 14 8 5 5 5 7 6 12 7 7 7 3 7 9 5 10 14 19 19 12 13 6 17 34 16 22 45 58 53 52 50
16 13 13 6 23 17 2 16 22 12 19 11 10 20 14 15 17 20 15 9 10 10 8 5 3 4 8 6 6 18 26 28 30 26 29 37 43 72 74 65 53 48 47 53 58
40 24 14 11 13 10 11 15 21 35 20 6 26 15 11 11 13 5 12 22 28 17 8 9 11 6 10 8 12 18 17 27 17 12 36 26 28 23 20 32 43 40 49 58 61
Wind_Direction_500mb
57 64 72 71 67 64 59 61 65 70 68 38 13 11 14 39 32 46 35 6 353 353 11 26 31 48 88 99 62 79 98 162 122 103 82 38 85 66 66 65 60 62 55 34 34
60 69 76 75 71 66 59 60 62 62 55 31 9 346 340 59 31 43 29 17 6 6 26 40 55 65 67 55 48 47 93 137 84 104 92 62 52 77 56 45 42 43 49 49 49
59 71 77 76 70 72 64 58 58 48 33 17 13 26 48 101 45 14 23 20 17 26 28 36 46 63 50 56 32 45 65 108 116 118 80 87 59 57 50 45 36 35 37 50 49
60 76 79 75 69 68 65 69 56 50 38 17 26 41 48 115 60 15 15 16 21 20 51 74 76 71 70 63 60 91 62 72 47 80 70 67 84 61 56 62 46 46 48 52 49
67 81 87 81 68 56 63 84 63 54 43 40 38 127 42 64 26 19 19 12 23 34 49 73 68 62 78 86 71 73 81 80 82 82 76 70 68 63 48 44 47 48 49 50 50
70 78 77 75 68 61 77 81 36 44 54 52 53 66 94 61 27 15 18 23 26 32 53 77 80 98 60 60 59 111 79 76 76 77 78 70 41 74 31 47 52 49 48 47 43
67 72 67 55 75 80 81 54 62 64 45 19 48 52 56 44 30 26 5 16 24 33 58 70 84 106 95 89 112 102 99 82 32 55 114 47 40 56 43 52 55 51 51 54 53
64 84 80 50 112 119 113 72 84 67 41 38 56 49 69 40 31 19 28 24 32 49 76 71 95 87 68 116 53 45 46 56 28 14 25 104 61 53 56 57 52 49 49 51 51
72 113 122 70 94 105 74 12 274 290 52 33 52 64 40 28 32 28 18 15 56 65 75 99 94 58 42 43 37 22 65 26 25 16 106 94 111 88 70 70 61 53 53 51 50
76 113 159 121 111 87 77 42 50 82 35 14 41 63 22 9 26 30 40 46 84 83 66 63 54 58 26 26 65 60 104 56 42 7 68 87 98 78 70 67 61 57 53 53 49
84 67 176 196 208 253 330 10 78 56 64 64 51 69 21 22 35 37 48 61 67 64 50 32 58 32 323 349 58 91 85 92 15 355 66 78 96 83 76 72 63 59 55 52 48
78 84 72 171 206 222 288 92 103 121 76 54 49 53 34 29 36 32 47 61 50 46 353 48 52 331 300 19 62 49 83 50 53 7 93 122 98 109 89 79 73 65 57 52 46
54 114 81 98 134 156 145 114 105 95 76 31 30 24 19 25 36 15 26 39 63 55 55 77 301 330 64 42 57 40 70 14 127 92 54 134 51 207 115 105 77 63 60 50 39
50 108 119 95 107 140 151 136 98 109 76 339 357 20 5 31 47 18 31 38 39 92 95 74 357 19 39 61 3 74 340 194 126 85 152 0 271 265 189 160 85 62 55 44 38
78 89 120 158 151 151 159 151 105 115 48 324 350 356 21 69 340 18 39 70 68 358 103 143 4 15 36 7 337 88 43 126 99 92 86 342 71 260 138 225 208 151 48 42 35
64 122 98 114 152 155 154 153 120 42 255 11 344 357 17 27 26 355 37 63 68 53 46 92 47 50 313 306 343 294 125 46 56 64 32 274 109 255 190 205 171 197 113 42 27
151 100 126 167 152 146 155 164 37 108 330 284 0 18 81 4 14 18 35 28 48 64 11 7 25 342 22 350 12 46 55 356 5 17 208 336 33 247 212 180 170 184 189 18 17
211 194 118 142 136 144 156 54 77 251 216 147 113 74 81 2 31 9 59 41 31 48 71 58 348 12 347 69 260 30 117 134 208 318 279 330 242 255 212 178 170 190 227 274 320
225 225 243 155 145 154 166 58 196 199 151 146 102 92 8 9 108 64 37 108 7 22 120 107 348 330 42 25 59 300 48 148 104 75 42 271 284 263 172 196 212 234 253 281 325
225 225 234 233 171 165 81 202 164 158 128 121 152 133 162 288 79 59 234 230 155 32 148 212 53 14 300 347 36 85 143 49 12 50 318 292 280 244 217 227 236 241 248 289 326
219 212 224 214 187 184 149 203 166 170 138 134 157 122 133 153 84 150 180 275 210 57 74 131 100 287 6 26 57 10 55 54 109 105 160 273 271 214 200 225 225 241 254 315 329
217 212 214 196 158 50 127 166 136 155 153 122 108 111 144 154 124 137 193 207 160 153 101 33 138 101 240 284 257 256 183 123 115 263 179 137 272 207 222 235 211 244 256 319 320
218 204 199 189 139 324 129 93 144 145 180 157 123 127 126 141 77 187 180 139 155 134 162 180 338 16 343 357 4 191 180 111 102 81 207 139 262 272 231 239 228 275 300 306 311
201 81 176 191 170 139 143 184 148 165 152 145 122 114 103 101 51 182 175 183 183 127 119 118 97 166 196 205 134 194 203 154 127 130 189 231 291 264 246 250 279 293 303 303 306
211 225 178 211 215 143 141 129 137 167 189 171 88 190 158 115 69 197 236 134 168 172 111 117 170 149 271 271 338 244 217 182 201 182 178 255 218 264 269 280 291 297 297 298 298
196 182 169 97 139 110 219 213 161 172 152 227 203 172 165 151 184 191 146 187 182 156 141 104 217 88 303 4 310 273 255 226 222 228 249 257 272 271 274 275 275 281 293 299 300
206 211 194 150 144 117 208 183 191 145 196 183 176 124 165 201 143 111 134 148 155 146 136 124 134 93 266 335 330 291 241 194 187 197 217 226 234 268 266 259 269 289 301 301 305
Wind_Speed_850mb
31 34 35 37 40 38 37 33 28 23 18 12 20 24 15 20 43 43 51 46 40 33 23 22 25 15 14 12 15 13 8 17 9 9 9 30 16 48 44 68 86 47 47 32 48
26 29 33 34 36 36 34 32 31 25 18 16 24 37 9 3 30 56 40 28 29 23 22 23 35 28 17 14 13 14 6 15 15 29 32 57 45 26 31 60 53 64 62 65 70
22 23 26 28 30 32 41 40 31 27 18 15 22 42 11 4 16 54 45 39 37 23 23 20 14 23 28 24 15 10 7 34 38 44 30 45 78 39 17 31 47 47 52 73 83
17 15 18 23 25 26 26 37 38 42 39 22 5 27 32 6 11 44 45 39 38 25 22 31 47 36 14 21 26 30 42 31 26 37 22 42 38 66 61 27 33 37 46 69 85
14 11 10 15 19 20 24 25 38 41 48 46 22 5 27 56 35 35 39 35 31 30 21 24 35 32 16 28 62 38 34 57 65 80 70 70 68 40 53 37 37 44 53 63 66
13 9 11 11 11 17 21 19 16 20 42 41 54 24 16 44 35 31 32 35 37 33 33 39 41 38 29 18 26 24 55 52 66 65 54 61 35 15 37 32 41 52 66 70 71
11 9 10 9 10 15 19 28 25 24 19 20 40 39 81 41 29 25 25 33 45 31 33 25 13 18 43 43 57 55 39 34 41 6 7 7 40 25 22 32 46 56 62 70 68
9 8 13 20 14 17 17 22 33 41 22 35 5 41 32 42 28 14 22 13 26 30 31 27 38 50 24 30 12 11 11 8 27 24 24 17 11 21 18 31 42 46 54 64 68
9 8 13 29 32 19 12 10 8 5 17 46 24 10 16 39 52 46 34 30 15 30 37 26 37 29 21 8 9 19 7 12 9 53 8 16 17 15 21 29 34 38 44 49 60
7 5 10 21 30 34 29 30 61 9 4 13 43 13 36 45 56 47 33 30 22 11 25 42 31 15 15 17 3 4 11 13 11 17 41 36 24 17 23 33 33 36 44 52 55
5 4 6 18 18 10 9 9 12 33 76 40 28 23 43 23 48 58 39 43 44 47 15 41 29 14 13 12 7 11 16 16 6 4 16 16 17 11 21 28 29 34 40 44 46
5 5 5 6 14 13 4 7 21 24 40 37 43 30 34 38 29 51 47 34 46 16 9 16 21 13 8 9 16 14 14 9 6 10 12 16 11 7 12 16 24 26 30 35 41
8 7 11 10 8 14 16 34 24 16 17 20 32 35 34 26 31 56 38 14 20 30 32 20 6 17 7 17 11 11 9 3 6 7 12 11 2 5 5 13 16 22 25 30 38
9 6 9 13 12 22 29 17 8 8 10 25 27 24 39 9 16 38 41 14 18 7 8 18 18 9 12 14 9 6 4 3 9 6 8 5 6 8 8 6 6 10 18 24 30
6 10 8 3 15 20 18 12 6 5 9 13 13 15 26 22 9 38 27 51 12 10 7 1 12 14 14 7 8 4 2 6 4 7 7 9 6 6 9 9 8 2 10 21 30
5 4 8 10 8 13 19 11 6 13 6 6 11 20 8 26 15 19 17 20 11 12 24 7 5 8 5 6 6 5 5 9 7 5 7 8 7 6 9 10 8 8 2 11 21
2 4 4 6 8 15 15 9 11 12 7 7 6 9 6 13 14 23 11 17 10 9 12 7 8 9 13 7 8 14 9 5 9 8 7 7 6 13 6 7 17 18 7 3 18
9 2 3 6 10 13 12 9 13 6 10 2 2 3 8 11 9 13 6 9 12 9 8 7 9 13 24 6 2 8 8 8 7 2 8 10 8 7 6 14 16 11 9 8 17
15 10 6 3 8 10 5 10 16 14 11 15 5 6 6 3 6 8 10 3 3 7 10 8 2 7 7 9 3 7 10 6 14 2 7 5 12 5 3 9 15 17 13 17 31
17 14 13 7 6 9 8 8 6 6 13 5 8 4 7 5 3 9 0 4 3 8 1 6 6 3 8 3 20 12 10 6 8 5 8 9 10 9 11 15 20 21 22 17 48
16 11 13 13 10 6 8 11 7 10 8 6 8 8 4 7 5 4 7 2 4 4 8 5 6 6 4 9 1 7 4 12 9 6 8 2 12 12 12 11 17 30 21 33 46
14 5 13 19 6 9 7 13 12 11 7 7 9 6 9 7 5 5 5 6 10 8 6 3 8 4 1 5 5 3 6 7 8 8 1 5 14 3 13 17 13 15 23 55 42
11 13 16 25 7 1 1 5 6 12 11 9 7 5 4 10 6 3 5 2 12 7 9 9 3 6 14 8 6 4 7 9 9 6 11 10 11 3 12 11 16 26 51 50 41
12 1 11 19 12 20 13 6 7 8 10 9 11 11 9 6 8 10 5 7 9 6 13 8 6 10 12 10 7 3 5 7 11 7 8 16 15 19 17 14 40 51 52 50 44
19 11 13 5 6 15 13 12 13 12 7 16 3 9 14 8 5 5 5 7 6 12 7 7 7 3 7 9 5 10 14 19 19 12 13 6 17 34 16 22 45 58 53 52 50
16 13 13 6 23 17 2 16 22 12 19 11 10 20 14 15 17 20 15 9 10 10 8 5 3 4 8 6 6 18 26 28 30 26 29 37 43 72 74 65 53 48 47 53 58
40 24 14 11 13 10 11 15 21 35 20 6 26 15 11 11 13 5 12 22 28 17 8 9 11 6 10 8 12 18 17 27 17 12 36 26 28 23 20 32 43 40 49 58 61
Wind_Direction_850mb
57 64 72 71 67 64 59 61 65 70 68 38 13 11 14 39 32 46 35 6 353 353 11 26 31 48 88 99 62 79 98 162 122 103 82 38 85 66 66 65 60 62 55 34 34
60 69 76 75 71 66 59 60 62 62 55 31 9 346 340 59 31 43 29 17 6 6 26 40 55 65 67 55 48 47 93 137 84 104 92 62 52 77 56 45 42 43 49 49 49
59 71 77 76 70 72 64 58 58 48 33 17 13 26 48 101 45 14 23 20 17 26 28 36 46 63 50 56 32 45 65 108 116 118 80 87 59 57 50 45 36 35 37 50 49
60 76 79 75 69 68 65 69 56 50 38 17 26 41 48 115 60 15 15 16 21 20 51 74 76 71 70 63 60 91 62 72 47 80 70 67 84 61 56 62 46 46 48 52 49
67 81 87 81 68 56 63 84 63 54 43 40 38 127 42 64 26 19 19 12 23 34 49 73 68 62 78 86 71 73 81 80 82 82 76 70 68 63 48 44 47 48 49 50 50
70 78 77 75 68 61 77 81 36 44 54 52 53 66 94 61 27 15 18 23 26 32 53 77 80 98 60 60 59 111 79 76 76 77 78 70 41 74 31 47 52 49 48 47 43
67 72 67 55 75 80 81 54 62 64 45 19 48 52 56 44 30 26 5 16 24 33 58 70 84 106 95 89 112 102 99 82 32 55 114 47 40 56 43 52 55 51 51 54 53
64 84 80 50 112 119 113 72 84 67 41 38 56 49 69 40 31 19 28 24 32 49 76 71 95 87 68 116 53 45 46 56 28 14 25 104 61 53 56 57 52 49 49 51 51
72 113 122 70 94 105 74 12 274 290 52 33 52 64 40 28 32 28 18 15 56 65 75 99 94 58 42 43 37 22 65 26 25 16 106 94 111 88 70 70 61 53 53 51 50
76 113 159 121 111 87 77 42 50 82 35 14 41 63 22 9 26 30 40 46 84 83 66 63 54 58 26 26 65 60 104 56 42 7 68 87 98 78 70 67 61 57 53 53 49
84 67 176 196 208 253 330 10 78 56 64 64 51 69 21 22 35 37 48 61 67 64 50 32 58 32 323 349 58 91 85 92 15 355 66 78 96 83 76 72 63 59 55 52 48
78 84 72 171 206 222 288 92 103 121 76 54 49 53 34 29 36 32 47 61 50 46 353 48 52 331 300 19 62 49 83 50 53 7 93 122 98 109 89 79 73 65 57 52 46
54 114 81 98 134 156 145 114 105 95 76 31 30 24 19 25 36 15 26 39 63 55 55 77 301 330 64 42 57 40 70 14 127 92 54 134 51 207 115 105 77 63 60 50 39
50 108 119 95 107 140 151 136 98 109 76 339 357 20 5 31 47 18 31 38 39 92 95 74 357 19 39 61 3 74 340 194 126 85 152 0 271 265 189 160 85 62 55 44 38
78 89 120 158 151 151 159 151 105 115 48 324 350 356 21 69 340 18 39 70 68 358 103 143 4 15 36 7 337 88 43 126 99 92 86 342 71 260 138 225 208 151 48 42 35
64 122 98 114 152 155 154 153 120 42 255 11 344 357 17 27 26 355 37 63 68 53 46 92 47 50 313 306 343 294 125 46 56 64 32 274 109 255 190 205 171 197 113 42 27
151 100 126 167 152 146 155 164 37 108 330 284 0 18 81 4 14 18 35 28 48 64 11 7 25 342 22 350 12 46 55 356 5 17 208 336 33 247 212 180 170 184 189 18 17
211 194 118 142 136 144 156 54 77 251 216 147 113 74 81 2 31 9 59 41 31 48 71 58 348 12 347 69 260 30 117 134 208 318 279 330 242 255 212 178 170 190 227 274 320
225 225 243 155 145 154 166 58 196 199 151 146 102 92 8 9 108 64 37 108 7 22 120 107 348 330 42 25 59 300 48 148 104 75 42 271 284 263 172 196 212 234 253 281 325
225 225 234 233 171 165 81 202 164 158 128 121 152 133 162 288 79 59 234 230 155 32 148 212 53 14 300 347 36 85 143 49 12 50 318 292 280 244 217 227 236 241 248 289 326
219 212 224 214 187 184 149 203 166 170 138 134 157 122 133 153 84 150 180 275 210 57 74 131 100 287 6 26 57 10 55 54 109 105 160 273 271 214 200 225 225 241 254 315 329
217 212 214 196 158 50 127 166 136 155 153 122 108 111 144 154 124 137 193 207 160 153 101 33 138 101 240 284 257 256 183 123 115 263 179 137 272 207 222 235 211 244 256 319 320
218 204 199 189 139 324 129 93 144 145 180 157 123 127 126 141 77 187 180 139 155 134 162 180 338 16 343 357 4 191 180 111 102 81 207 139 262 272 231 239 228 275 300 306 311
201 81 176 191 170 139 143 184 148 165 152 145 122 114 103 101 51 182 175 183 183 127 119 118 97 166 196 205 134 194 203 154 127 130 189 231 291 264 246 250 279 293 303 303 306
211 225 178 211 215 143 141 129 137 167 189 171 88 190 158 115 69 197 236 134 168 172 111 117 170 149 271 271 338 244 217 182 201 182 178 255 218 264 269 280 291 297 297 298 298
196 182 169 97 139 110 219 213 161 172 152 227 203 172 165 151 184 191 146 187 182 156 141 104 217 88 303 4 310 273 255 226 222 228 249 257 272 271 274 275 275 281 293 299 300
206 211 194 150 144 117 208 183 191 145 196 183 176 124 165 201 143 111 134 148 155 146 136 124 134 93 266 335 330 291 241 194 187 197 217 226 234 268 266 259 269 289 301 301 305